map of OSN home
Great Circle Mapper logo
OSN - Airport
Location
City:  Osan, Republic of Korea (South Korea)
Name:Osan AB
ICAO / IATA:RKSO / OSN

Details
Type:Airport (Aerodrome, Airfield)
Use:Military, International (customs port of entry)
Latitude:37°05'26"N (37.090617)
Longitude:127°01'47"E (127.029594)
Datum:WGS 1984
Elevation:40 ft (12 m)
Runways:1
Longest:9004 × 150 ft (2744 × 45.5 m), paved

Time
Time Zone:UTC+9
Local Time:

Weather
METAR:RKSO 260018Z AUTO 00000KT 2 1/2SM BR CLR 13/13 A3012 RMK AO2 VIS 2V2 1/2 CIG 021 RWY09 $

Related Locations
Nearby:
Farthest:SUPE: 12248 mi / 19712 km
Punta el Este [El Jagüel Airport], Maldonado, UY

Find:

   beyond  
but within

Other Information
Maps:
NOTAMs:
Links:
Sources:

  
flag of Republic of Korea (South Korea)   

Airport Diagram

Airport diagram for OSN

Airport diagram (OBSOLETE) from NGA

Sectional Chart

Flight Planning
at skyvector.com

Satellite Image

Google Maps Satellite View

 

Copyright © 2004-2014 Karl L. Swartz. All rights reserved.
The Great Circle Mapper name and logo are trademarks of the Great Circle Mapper.
All other trademarks mentioned herein belong to their respective owners.
Please see credits for attibutions and further copyright information.

  Follow gcmap on Facebook Follow gcmap on Twitter

hCard Microformat

Geo Microformat